Hourly Data Report for October 13, 2014

All times are specified in Local Standard Time (LST). Add 1 hour to adjust for Daylight Saving Time where and when it is observed.

HALL BEACH A
NUNAVUT

68°46'33.000" N
81°14'33.000" W
9.10 m
2402354
71293
YUX

Download Data

Hourly Data (October 2014)
Hourly Data Report for October 13, 2014
Temp Definition
°C
Dew Point Temp Definition
°C
Rel Hum Definition
%
Wind Dir Definition
10's deg

Wind Spd Definition
km/h
Visibility Definition
km
Stn Press Definition
kPa
Hmdx Definition


Wind Chill Definition


Weather Definition


TIME
00:00 Legend Double Dagger -1.0 -1.1 99 15 35 8.1 99.95   -8 Snow
01:00 Legend Double Dagger -1.5 -1.8 98 15 39 6.4 100.02   -9 Snow
02:00 Legend Double Dagger -1.5 -1.9 97 15 35 9.7 100.07   -9 Snow
03:00 Legend Double Dagger -1.4 -2.2 94 14 32 16.1 100.13   -9 Snow
04:00 Legend Double Dagger -1.3 -2.3 93 14 32 16.1 100.17   -8 Snow
05:00 Legend Double Dagger -1.4 -2.1 95 13 28 11.3 100.22   -8 Snow
06:00 Legend Double Dagger -1.3 -2.7 90 13 28 16.1 100.25   -8 Snow
07:00 Legend Double Dagger -1.3 -2.6 91 13 28 16.1 100.28   -8 LegendNANA
08:00 Legend Double Dagger -1.4 -3.1 88 13 24 16.1 100.32   -8 LegendNANA
09:00 Legend Double Dagger -1.4 -3.3 87 15 26 16.1 100.36   -8 LegendNANA
10:00 Legend Double Dagger -1.3 -2.6 91 12 15 16.1 100.39   -6 LegendNANA
11:00 Legend Double Dagger -1.1 -1.5 97 9 15 1.6 100.38   -6 Snow
12:00 Legend Double Dagger -0.9 -1.2 98 11 18 16.1 100.40   -6 LegendNANA
13:00 Legend Double Dagger -0.9 -1.6 95 12 15 16.1 100.44   -6 LegendNANA
14:00 Legend Double Dagger -1.0 -1.6 96 11 15 16.1 100.48   -6 LegendNANA
15:00 Legend Double Dagger -1.1 -1.5 97 11 17 16.1 100.51   -6 LegendNANA
16:00 Legend Double Dagger -1.1 -1.5 97 12 24 16.1 100.52   -7 LegendNANA
17:00 Legend Double Dagger -1.2 -1.6 97 13 17 16.1 100.56   -6 LegendNANA
18:00 Legend Double Dagger -2.0 -2.3 98 11 17 16.1 100.59   -7 LegendNANA
19:00 Legend Double Dagger -1.5 -1.6 99 11 15 4.8 100.60   -6 Snow
20:00 Legend Double Dagger -1.1 -1.2 99 11 21 16.1 100.60   -7 LegendNANA
21:00 Legend Double Dagger -1.2 -1.5 98 11 22 16.1 100.60   -7 LegendNANA
22:00 Legend Double Dagger -1.4 -1.8 97 11 17 16.1 100.61   -7 LegendNANA
23:00 Legend Double Dagger -1.3 -1.7 97 8 15 16.1 100.59   -6 LegendNANA

Notes on Data Quality.

Legend

  • E = Estimated
  • M = Missing
  • NA = Not Available
  • ‡ = Partner data that is not subject to review by the National Climate Archives
Date modified: